Kentville, Nova Scotia

9:22 AM ADT on July 23, 2017 (GMT -0300)
Kentville

Weather History for CXKT - January, 2014

Change the Weather History Date:

Monday, January 6, 2014

  Actual Average (CYZX) Record (CYZX)
Temperature  
Mean Temperature 37 °F -  
Max Temperature 54 °F 30 °F 59 °F (2007)
Min Temperature 23 °F 15 °F -2 °F (2013)
Degree Days  
Heating Degree Days 28    
Moisture  
Dew Point 38 °F    
Average Humidity 96    
Maximum Humidity 100    
Minimum Humidity 85    
Precipitation  
Precipitation 0.16 in - - ()
Sea Level Pressure  
Sea Level Pressure 29.80 in    
Wind  
Wind Speed 1 mph ()    
Max Wind Speed 12 mph    
Max Gust Speed 24 mph    
Averages and records for this station are not official NWS values.
T = Trace of Precipitation, MM = Missing Value Source: Averaged Metar Reports

Daily Weather History Graph

Daily Weather History Graph

Search for Another Location

Airport or City:

Trip Planner

Search our weather history database for the weather conditions in past years. The results will help you decide how hot, cold, wet, or windy it might be!

Date:

Astronomy

Jan. 06, 2014 Rise Set
Actual Time 7:56 AM AST 4:51 PM AST
Civil Twilight 7:22 AM AST 5:25 PM AST
Nautical Twilight 6:45 AM AST 6:02 PM AST
Astronomical Twilight 6:10 AM AST 6:37 PM AST
Moon 10:52 AM AST (1/6) 11:39 PM AST (1/6)
Length of Visible Light 10h 02m
Length of Day
8h 55m
Waxing Crescent, 34% of the Moon is Illuminated
Jan 6
Waxing Crescent
Jan 7
First Quarter
Jan 16
Full
Jan 24
Last Quarter
Jan 30
New

Hourly Weather History & Observations

Time (AST) Temp. Windchill Dew Point Humidity Pressure Visibility Wind Dir Wind Speed Gust Speed Precip Events Conditions
12:00 AM 24.8 °F - 24.8 °F 100% 30.29 in - Calm Calm - N/A   Unknown
1:00 AM 24.4 °F - 24.4 °F 100% 30.28 in - Calm Calm - N/A   Unknown
2:00 AM 25 °F - 25 °F 99% 30.25 in - Calm Calm - -  
2:00 AM 24.8 °F - 24.8 °F 100% 30.25 in - Calm Calm - N/A   Unknown
3:00 AM 25.5 °F - 25.5 °F 100% 30.23 in - Calm Calm - N/A   Unknown
4:00 AM 26.6 °F - 26.6 °F 100% 30.19 in - Calm Calm - N/A   Unknown
5:00 AM 27.7 °F - 27.7 °F 100% 30.18 in - Calm Calm - N/A   Unknown
6:00 AM 29.7 °F - 29.7 °F 100% 30.14 in - Calm Calm - N/A   Unknown
7:00 AM 33.6 °F - 32.0 °F 94% 30.09 in - Calm Calm - 0.01 in   Unknown
8:00 AM 36 °F - 33 °F 85% 30.05 in - Calm Calm - -  
8:00 AM 35.6 °F - 33.1 °F 91% 30.05 in - Calm Calm - N/A   Unknown
9:00 AM 36.1 °F - 34.7 °F 94% 30.02 in - Calm Calm - N/A   Unknown
10:00 AM 37.9 °F 35.5 °F 36.1 °F 93% 29.97 in - ESE 3.5 mph - N/A   Unknown
11:00 AM 39.9 °F 35.1 °F 37.4 °F 91% 29.90 in - SE 6.9 mph - N/A   Unknown
12:00 PM 42.1 °F 36.1 °F 39.9 °F 92% 29.81 in - SE 10.4 mph 23.0 mph N/A   Unknown
1:00 PM 43.5 °F 40.9 °F 41.7 °F 93% 29.72 in - SE 4.6 mph 20.7 mph N/A   Unknown
2:00 PM 46 °F - 44 °F 89% 29.63 in - SE 2.3 mph - -  
2:00 PM 43.7 °F - 41.9 °F 93% 29.63 in - SE 2.3 mph 20.7 mph 0.02 in   Unknown
3:00 PM 46.0 °F - 44.4 °F 94% 29.59 in - SSE 1.2 mph 17.3 mph 0.01 in   Unknown
4:00 PM 46.6 °F - 45.5 °F 96% 29.55 in - SE 3.5 mph 17.3 mph 0.02 in   Unknown
5:00 PM 48.6 °F - 47.5 °F 96% 29.49 in - SSE 9.2 mph 24.2 mph 0.02 in   Unknown
6:00 PM 48.6 °F - 47.7 °F 97% 29.44 in - SSE 2.3 mph 19.6 mph 0.01 in   Unknown
7:00 PM 50.0 °F - 48.9 °F 96% 29.38 in - SSE 11.5 mph 23.0 mph N/A   Unknown
8:00 PM 50 °F - 49 °F 95% 29.34 in - SSE 2.3 mph - -  
8:00 PM 50.0 °F - 49.1 °F 97% 29.34 in - SSE 2.3 mph 17.3 mph 0.01 in   Unknown
9:00 PM 49.1 °F - 50.2 °F 100% 29.29 in - Calm Calm - N/A   Unknown
10:00 PM 51.8 °F - 51.1 °F 97% 29.22 in - Calm Calm - N/A   Unknown
11:00 PM 54.0 °F - 52.9 °F 96% 29.18 in - Calm Calm - 0.11 in   Unknown